| time (UTC) | temp C | wind direction | speed KPH | gust KPH | rain 1hr cm | rain 24hr cm | rain mn cm | humidity % | barometer mb |
| 20260506143055 | 18 | 58 | 0.0 | 3.2 | 0.23 | 0.33 | 0.33 | 74 | 1004.5 |
| 20260506141550 | 17 | 356 | 1.6 | 4.8 | 0.23 | 0.33 | 0.33 | 74 | 1004.6 |
| 20260506140103 | 18 | 346 | 0.0 | 9.7 | 0.10 | 0.10 | 0.10 | 66 | 1004.6 |
| 20260506134547 | 18 | 20 | 0.0 | 4.8 | 0.10 | 0.10 | 0.10 | 68 | 1004.7 |
| 20260506133056 | 18 | 59 | 0.0 | 3.2 | 0.10 | 0.10 | 0.10 | 71 | 1005.0 |
| 20260506131546 | 17 | 148 | 0.0 | 9.7 | 0.10 | 0.10 | 0.10 | 70 | 1005.4 |
| 20260506130110 | 20 | 207 | 3.2 | 11.3 | 0.00 | 0.00 | 0.00 | 51 | 1005.5 |
| 20260506124540 | 21 | 207 | 4.8 | 14.5 | 0.00 | 0.00 | 0.00 | 49 | 1005.5 |
| 20260506123044 | 21 | 197 | 1.6 | 8.0 | 0.00 | 0.00 | 0.00 | 44 | 1005.5 |
| 20260506121549 | 21 | 125 | 3.2 | 17.7 | 0.00 | 0.00 | 0.00 | 44 | 1005.7 |
| 20260506120037 | 21 | 181 | 3.2 | 14.5 | 0.00 | 0.00 | 0.00 | 49 | 1005.9 |
| 20260506114536 | 21 | 139 | 4.8 | 12.9 | 0.00 | 0.00 | 0.00 | 45 | 1005.8 |
| 20260506113039 | 21 | 149 | 4.8 | 12.9 | 0.00 | 0.00 | 0.00 | 44 | 1006.0 |
| 20260506111536 | 21 | 101 | 3.2 | 8.0 | 0.00 | 0.00 | 0.00 | 46 | 1006.1 |
| 20260506110041 | 21 | 272 | 3.2 | 9.7 | 0.00 | 0.00 | 0.00 | 46 | 1006.2 |
| 20260506104534 | 22 | 196 | 3.2 | 9.7 | 0.00 | 0.00 | 0.00 | 46 | 1006.3 |
| 20260506103032 | 22 | 214 | 1.6 | 8.0 | 0.00 | 0.00 | 0.00 | 47 | 1006.5 |
| 20260506101532 | 21 | 359 | 0.0 | 9.7 | 0.00 | 0.00 | 0.00 | 53 | 1006.7 |
| 20260506100026 | 20 | 149 | 4.8 | 11.3 | 0.00 | 0.00 | 0.00 | 54 | 1006.8 |
| 20260506094527 | 20 | 288 | 3.2 | 12.9 | 0.00 | 0.00 | 0.00 | 54 | 1007.0 |
| 20260506093031 | 20 | 209 | 4.8 | 11.3 | 0.00 | 0.00 | 0.00 | 52 | 1007.0 |
| 20260506091521 | 19 | 300 | 1.6 | 6.4 | 0.00 | 0.00 | 0.00 | 56 | 1006.9 |
| 20260506090019 | 19 | 185 | 0.0 | 11.3 | 0.00 | 0.00 | 0.00 | 57 | 1007.0 |
| 20260506084518 | 18 | 204 | 0.0 | 4.8 | 0.00 | 0.00 | 0.00 | 58 | 1007.1 |
| 20260506083027 | 18 | 50 | 1.6 | 6.4 | 0.00 | 0.00 | 0.00 | 58 | 1007.0 |
| 20260506081516 | 18 | 251 | 1.6 | 6.4 | 0.00 | 0.00 | 0.00 | 61 | 1007.1 |
| 20260506073008 | 17 | 234 | 0.0 | 9.7 | 0.00 | 0.00 | 0.00 | 66 | 1007.1 |
| 20260506071504 | 16 | 277 | 1.6 | 8.0 | 0.00 | 0.00 | 0.00 | 70 | 1007.3 |
| 20260506061559 | 15 | 230 | 0.0 | 6.4 | 0.00 | 0.00 | 0.00 | 73 | 1007.3 |
| 20260506044553 | 13 | 217 | 0.0 | 4.8 | 0.00 | 0.00 | 0.00 | 76 | 1007.0 |
| 20260506043050 | 13 | 183 | 0.0 | 1.6 | 0.00 | 0.00 | 0.00 | 79 | 1006.8 |
| 20260506041548 | 12 | 203 | 1.6 | 4.8 | 0.00 | 0.00 | 0.00 | 83 | 1006.8 |
| 20260506040048 | 11 | 198 | 0.0 | 3.2 | 0.00 | 0.00 | 0.00 | 86 | 1006.8 |
| 20260506034606 | 11 | 260 | 0.0 | 1.6 | 0.00 | 0.00 | 0.00 | 86 | 1006.5 |
| 20260506033045 | 11 | 127 | 0.0 | 3.2 | 0.00 | 0.00 | 0.00 | 86 | 1006.5 |
| 20260506031551 | 11 | 231 | 0.0 | 1.6 | 0.00 | 0.00 | 0.00 | 87 | 1006.3 |
| 20260506030043 | 11 | 112 | 0.0 | 1.6 | 0.00 | 0.00 | 0.00 | 86 | 1006.4 |
| 20260506024549 | 11 | 261 | 0.0 | 3.2 | 0.00 | 0.00 | 0.00 | 87 | 1006.5 |
| 20260506023040 | 12 | 259 | 0.0 | 1.6 | 0.00 | 0.00 | 0.00 | 86 | 1006.5 |
| 20260506021538 | 12 | 256 | 0.0 | 4.8 | 0.00 | 0.00 | 0.00 | 86 | 1006.5 |
| 20260506020037 | 12 | 286 | 0.0 | 4.8 | 0.00 | 0.00 | 0.00 | 85 | 1006.4 |
| 20260506014536 | 12 | 245 | 0.0 | 3.2 | 0.00 | 0.00 | 0.00 | 86 | 1006.5 |
| 20260506013034 | 12 | 210 | 0.0 | 4.8 | 0.00 | 0.00 | 0.00 | 85 | 1006.3 |
| 20260506011530 | 13 | 220 | 0.0 | 3.2 | 0.00 | 0.00 | 0.00 | 85 | 1006.4 |
| 20260506010047 | 13 | 198 | 0.0 | 0.0 | 0.00 | 0.00 | 0.00 | 84 | 1006.2 |
| 20260506004527 | 13 | 272 | 0.0 | 1.6 | 0.00 | 0.00 | 0.00 | 84 | 1006.2 |
| 20260506003026 | 13 | 283 | 0.0 | 1.6 | 0.00 | 0.00 | 0.00 | 83 | 1006.2 |
| 20260506001526 | 13 | 46 | 0.0 | 4.8 | 0.00 | 0.00 | 0.00 | 83 | 1005.9 |
| 20260506000022 | 13 | 288 | 0.0 | 3.2 | 0.00 | 0.00 | 0.00 | 81 | 1005.8 |
| 20260505234521 | 14 | 297 | 0.0 | 4.8 | 0.00 | 0.00 | 0.00 | 80 | 1006.2 |
| 20260505233019 | 14 | 96 | 0.0 | 6.4 | 0.00 | 0.00 | 0.00 | 80 | 1006.2 |
| 20260505231518 | 14 | 14 | 0.0 | 4.8 | 0.00 | 0.00 | 0.00 | 78 | 1006.3 |
| 20260505230023 | 15 | 291 | 0.0 | 3.2 | 0.00 | 0.00 | 0.00 | 77 | 1006.3 |
| 20260505224513 | 15 | 1 | 0.0 | 3.2 | 0.00 | 0.00 | 0.00 | 77 | 1006.3 |
| 20260505223010 | 15 | 299 | 1.6 | 8.0 | 0.00 | 0.00 | 0.00 | 76 | 1006.1 |
| 20260505221510 | 15 | 23 | 3.2 | 9.7 | 0.00 | 0.00 | 0.00 | 75 | 1005.8 |
| 20260505220005 | 15 | 46 | 3.2 | 14.5 | 0.00 | 0.00 | 0.00 | 71 | 1005.5 |
| 20260505214506 | 16 | 62 | 0.0 | 1.6 | 0.00 | 0.00 | 0.00 | 64 | 1005.0 |
| 20260505213012 | 16 | 255 | 0.0 | 12.9 | 0.00 | 0.00 | 0.00 | 63 | 1004.8 |
| 20260505211503 | 16 | 95 | 6.4 | 14.5 | 0.00 | 0.00 | 0.00 | 61 | 1004.2 |
| 20260505210004 | 16 | 193 | 4.8 | 11.3 | 0.00 | 0.00 | 0.00 | 61 | 1003.9 |
| 20260505204502 | 16 | 149 | 0.0 | 9.7 | 0.00 | 0.00 | 0.00 | 60 | 1003.7 |
| 20260505203002 | 16 | 210 | 1.6 | 6.4 | 0.00 | 0.00 | 0.00 | 60 | 1003.7 |
| 20260505201501 | 16 | 120 | 1.6 | 3.2 | 0.00 | 0.00 | 0.00 | 62 | 1003.6 |
| 20260505200002 | 16 | 117 | 0.0 | 4.8 | 0.00 | 0.00 | 0.00 | 62 | 1003.8 |
| 20260505194600 | 16 | 125 | 1.6 | 6.4 | 0.00 | 0.00 | 0.00 | 63 | 1003.6 |
| 20260505193100 | 17 | 86 | 1.6 | 9.7 | 0.00 | 0.00 | 0.00 | 65 | 1003.6 |
| 20260505191608 | 17 | 107 | 1.6 | 4.8 | 0.00 | 0.00 | 0.00 | 66 | 1003.6 |
| 20260505190104 | 17 | 49 | 0.0 | 1.6 | 0.00 | 0.00 | 0.00 | 69 | 1003.6 |
| 20260505184603 | 17 | 271 | 0.0 | 3.2 | 0.00 | 0.00 | 0.00 | 69 | 1003.5 |
| 20260505183129 | 17 | 330 | 0.0 | 1.6 | 0.00 | 0.00 | 0.00 | 69 | 1003.6 |
| 20260505181557 | 17 | 41 | 1.6 | 8.0 | 0.00 | 0.00 | 0.00 | 70 | 1003.6 |
| 20260505180056 | 17 | 63 | 6.4 | 11.3 | 0.00 | 0.00 | 0.00 | 69 | 1003.7 |
| 20260505174554 | 17 | 28 | 1.6 | 9.7 | 0.00 | 0.00 | 0.00 | 68 | 1003.8 |
| 20260505173054 | 17 | 45 | 4.8 | 17.7 | 0.00 | 0.00 | 0.00 | 67 | 1004.0 |
| 20260505171559 | 18 | 349 | 4.8 | 19.3 | 0.00 | 0.00 | 0.00 | 64 | 1004.0 |
| 20260505170049 | 18 | 25 | 4.8 | 12.9 | 0.00 | 0.00 | 0.00 | 60 | 1004.2 |
| 20260505164550 | 19 | 352 | 1.6 | 4.8 | 0.00 | 0.00 | 0.00 | 58 | 1004.3 |
| 20260505163049 | 20 | 15 | 1.6 | 4.8 | 0.00 | 0.00 | 0.00 | 57 | 1004.3 |
| 20260505161600 | 20 | 254 | 0.0 | 4.8 | 0.00 | 0.00 | 0.00 | 54 | 1004.3 |
| 20260505153047 | 22 | 197 | 4.8 | 19.3 | 0.00 | 0.00 | 0.00 | 43 | 1004.2 |
| 20260505151544 | 22 | 93 | 6.4 | 17.7 | 0.00 | 0.00 | 0.00 | 41 | 1004.3 |